Back to catalog

STARLINK-3644

AliveCommunicationsVLEO
NORAD 51987·PAYLOAD·🇺🇸 United States

Launched Mar 9, 2022 from Cape Canaveral Space Force Station

Loading…

Next Passes (next 24 hours)

TLE

FreshSource: CelesTrak SupGP

Epoch: Sep 14, 2026, 14:29 UTC

1 51987C 22025AH  26257.60395833 -.00052960  00000+0 -15651-2 0  2570
2 51987  53.1572 255.2023 0001258  82.7927  21.2319 15.34409413    18

Track STARLINK-3644 in real time with AllMySat

Download on the App Store